Wind_Speed
59 59 55 57 61 52 41 39 11 36 57 10 7 6 8 9 17 20 7 9 6 18 23 14 10 12 9 18 19 12 4 2 6 6 5 3 4 7 5 4 5 6 7 11
57 56 62 68 63 58 63 37 10 53 56 10 11 10 9 12 9 11 12 7 8 15 16 9 12 12 5 19 16 13 9 6 6 6 5 5 10 11 6 3 4 11 9 6
59 66 69 62 58 60 67 26 6 16 28 16 22 18 18 14 13 4 3 6 14 14 16 9 16 12 7 15 12 9 6 4 2 5 4 7 9 12 12 7 5 10 12 17
60 58 50 46 55 88 69 21 8 23 15 14 22 25 22 23 12 8 7 3 13 13 8 15 11 13 16 10 13 8 3 4 4 5 4 6 8 10 11 11 13 6 12 16
13 26 42 47 83 94 50 19 13 31 20 27 21 18 20 27 16 13 11 10 14 14 15 8 19 21 15 11 9 10 4 4 6 5 8 10 12 11 11 14 13 15 16 14
37 44 52 73 75 69 39 29 23 36 24 20 19 19 22 23 23 8 17 17 12 11 9 13 22 15 17 16 16 10 8 6 7 3 6 5 8 17 14 4 7 7 6 6
24 36 32 36 42 38 35 32 40 14 15 19 22 27 26 27 23 10 19 29 10 13 32 33 26 22 18 16 10 11 9 9 5 5 6 7 3 3 10 8 7 6 7 7
23 20 30 28 22 30 46 35 28 12 13 15 18 24 19 21 22 15 16 2 26 34 23 12 10 5 6 5 6 7 6 7 4 4 10 2 4 8 6 4 1 5 5 7
25 25 32 33 32 37 40 27 23 30 14 8 28 20 26 17 11 7 7 29 28 12 4 4 7 6 10 8 7 6 6 4 5 5 4 5 5 8 2 5 4 6 2 6
19 23 28 28 25 26 24 27 31 31 14 14 32 17 21 26 21 9 19 15 6 6 4 6 7 5 7 10 13 9 7 6 9 7 6 2 5 5 7 5 5 3 1 4
23 25 23 22 28 28 31 34 30 27 20 15 12 15 16 23 20 12 21 10 3 5 6 5 4 4 4 6 10 13 8 9 6 7 8 8 10 8 4 5 5 3 2 4
24 28 23 19 18 24 35 28 32 35 27 19 27 24 21 15 26 35 10 8 10 5 5 3 3 3 4 9 7 2 6 2 4 6 1 10 8 1 5 3 3 1 2 4
22 21 16 19 22 33 33 40 40 47 35 29 21 16 20 18 29 23 10 5 6 5 7 6 3 3 3 5 4 8 4 5 3 6 5 5 5 6 5 4 3 1 2 3
24 20 21 25 30 32 34 39 30 29 19 7 17 19 23 16 13 11 13 23 18 18 11 5 3 3 1 3 4 3 2 9 5 2 6 5 5 6 6 4 2 2 1 3
19 20 21 22 24 29 29 30 31 25 17 8 17 26 24 21 21 24 23 24 21 15 5 3 3 4 4 4 3 4 6 4 4 2 5 3 3 8 6 4 3 2 1 3
19 19 21 20 24 27 29 20 26 29 39 12 5 8 17 19 23 24 22 19 13 9 6 5 5 3 1 3 3 4 6 5 5 5 6 8 10 9 6 5 5 2 2 4
21 19 20 18 16 13 14 10 19 25 20 11 5 5 6 12 14 15 16 15 11 7 4 3 4 5 2 2 3 7 8 8 9 10 11 8 7 5 7 6 3 0 3 4
23 22 20 16 17 30 30 24 19 20 19 10 4 4 6 6 9 6 7 7 6 7 4 3 4 6 2 2 7 8 9 10 10 8 5 7 9 9 6 4 2 1 3 4
26 24 27 26 26 18 21 25 21 16 10 5 3 7 5 5 6 9 5 4 3 2 2 3 5 3 3 4 8 8 9 7 11 11 10 10 9 7 5 2 1 1 2 3
26 15 8 7 9 17 15 9 5 6 7 6 4 5 5 9 6 3 4 3 2 2 2 6 2 2 6 6 8 9 9 12 13 13 9 8 6 4 2 2 2 2 2 2
7 6 7 16 9 5 5 4 5 3 4 5 5 13 11 4 4 3 2 3 2 2 4 3 3 2 6 10 11 10 10 10 9 7 7 6 6 5 5 4 3 3 3 2
5 17 15 5 4 5 5 3 2 4 3 4 9 10 10 5 3 4 3 2 1 3 7 3 2 3 13 14 12 11 10 10 9 8 7 7 7 6 6 5 3 2 2 3
21 5 4 4 4 4 3 3 3 4 5 7 14 7 4 4 5 5 2 2 2 9 3 2 1 12 15 15 14 13 11 10 9 9 8 7 6 6 5 5 5 6 5 6
4 3 4 4 3 3 3 4 5 6 15 22 17 7 4 4 3 2 3 2 3 4 3 3 4 16 17 15 14 14 12 10 10 9 8 8 8 9 9 9 9 7 7 6
5 3 4 3 4 6 6 8 10 13 20 15 12 7 4 2 3 1 3 4 4 3 2 2 12 18 19 17 15 14 12 11 10 10 10 10 11 11 12 12 11 10 9 8
5 5 4 5 7 5 5 10 15 15 16 11 5 3 2 2 3 3 3 3 3 2 3 9 17 19 18 18 16 14 13 12 12 13 13 12 12 12 11 10 9 9 8 8
3 4 7 4 7 8 7 11 12 15 7 2 3 3 2 3 2 3 3 2 2 5 9 12 16 20 21 20 17 15 14 15 15 15 14 13 12 10 8 7 6 6 5 5
Wind_Direction
270 267 254 244 240 240 220 195 202 182 170 149 200 193 182 214 187 199 163 165 152 188 171 170 165 182 172 171 155 158 130 110 159 182 136 258 240 185 196 241 173 241 287 289
269 259 250 245 246 239 194 186 154 171 172 178 189 172 180 190 175 214 163 142 163 170 169 151 154 140 154 163 163 158 167 152 138 155 161 179 212 199 216 224 258 249 271 270
273 256 256 251 245 207 178 166 138 166 196 213 185 177 188 180 181 201 119 115 135 140 172 144 156 132 139 163 158 128 132 173 249 211 105 146 197 203 204 204 243 265 258 294
276 261 244 218 199 183 169 164 165 174 181 201 193 184 175 177 167 207 193 123 183 156 154 139 148 127 131 134 137 131 175 169 200 234 198 203 213 204 214 212 236 253 292 307
253 181 188 182 175 166 172 146 149 178 173 168 179 174 185 178 170 163 195 194 185 164 160 162 159 149 158 154 170 164 175 140 187 233 219 227 242 241 228 226 250 266 272 284
56 103 142 153 157 167 176 171 162 154 159 168 172 183 168 171 162 189 186 152 137 130 120 132 147 155 154 155 161 159 161 164 176 197 177 192 251 234 209 176 221 255 280 356
55 76 96 133 155 166 166 153 146 148 163 173 183 171 166 166 166 129 159 159 142 124 115 101 94 103 110 130 130 150 165 182 169 160 169 225 82 98 184 210 237 252 266 297
67 75 85 98 130 139 142 146 147 124 149 157 147 165 154 147 131 140 146 261 149 142 123 111 118 118 131 123 135 144 183 173 158 206 210 79 187 201 200 220 206 191 255 287
77 81 100 103 125 143 139 130 147 132 128 170 152 143 152 152 137 135 127 129 134 136 107 125 164 180 167 163 140 194 163 227 221 182 233 228 94 139 148 166 210 170 267 315
87 98 111 116 116 112 123 133 132 127 100 129 148 157 151 154 154 127 139 146 124 139 123 149 168 159 162 162 163 168 166 184 205 208 239 182 149 147 158 231 81 147 116 338
109 102 91 96 126 126 123 126 129 129 114 90 151 138 141 153 139 140 145 135 128 135 140 169 148 149 166 154 154 168 164 168 189 218 230 236 151 142 244 71 113 116 47 354
104 96 88 101 126 147 139 129 135 127 101 109 100 108 127 125 151 137 158 130 130 135 139 153 135 138 171 150 163 184 189 200 172 207 142 119 161 97 136 116 133 141 8 349
94 99 92 102 136 140 143 128 126 122 100 78 92 58 93 131 142 147 133 134 128 116 110 123 99 128 171 168 153 150 135 157 180 181 157 175 157 152 153 149 146 144 358 352
103 103 99 109 113 130 142 131 136 122 100 81 59 82 82 96 125 136 146 140 130 121 109 88 97 113 250 127 112 150 113 166 150 167 162 152 178 185 173 158 144 152 63 15
111 105 110 103 118 126 130 123 120 125 113 113 107 70 60 84 108 114 121 122 119 119 88 86 89 108 134 95 138 156 176 147 187 203 101 244 106 168 166 162 157 137 64 3
136 129 128 127 121 115 113 79 97 113 110 99 74 66 54 72 99 105 111 109 85 82 85 91 98 93 102 142 144 109 146 140 132 135 116 115 126 140 153 165 162 174 326 355
129 129 128 125 128 124 107 105 115 119 98 97 104 96 47 64 87 77 76 80 79 80 90 74 107 122 80 130 137 124 133 124 129 133 128 111 149 159 146 148 154 10 18 12
113 108 109 110 118 112 104 113 114 110 86 79 92 97 115 70 91 85 58 85 71 46 83 103 113 127 155 188 132 127 128 127 125 124 123 151 152 142 140 138 152 321 341 348
116 109 108 99 97 85 90 92 90 81 84 97 99 139 129 119 86 96 74 64 76 65 104 107 176 148 195 95 142 139 147 156 149 131 126 128 132 132 130 126 33 315 343 360
132 117 81 65 99 99 96 69 59 50 52 59 83 123 110 135 128 86 102 48 104 131 87 136 220 189 108 109 116 131 139 138 145 134 132 144 148 151 131 113 85 75 46 27
115 57 69 119 102 74 63 63 41 43 77 67 74 124 126 93 107 113 73 127 149 143 126 188 178 225 149 143 128 126 129 133 126 126 121 121 147 154 144 117 92 79 75 82
106 121 108 79 56 65 77 47 79 49 92 98 124 101 105 86 85 98 79 92 151 116 145 179 217 114 149 149 139 132 126 120 116 116 118 120 121 123 130 127 127 112 89 92
114 76 67 19 9 70 79 131 101 111 124 140 142 114 95 99 76 83 98 116 105 129 188 220 68 144 153 151 146 136 129 127 126 122 125 131 132 132 126 120 116 104 96 109
72 68 70 20 50 60 44 64 99 102 129 134 127 100 83 103 87 118 97 96 164 185 211 211 139 159 155 153 149 144 140 145 141 138 135 131 123 118 113 113 111 109 110 104
65 31 65 59 81 62 78 92 102 114 137 128 108 83 87 82 107 125 130 177 195 216 216 105 140 150 153 153 154 158 157 153 149 145 139 131 126 119 114 107 104 101 98 95
44 57 95 111 106 107 95 103 119 132 133 119 94 108 116 107 137 162 186 184 216 156 115 129 146 150 153 157 160 160 158 157 152 144 139 135 131 126 123 115 108 101 90 81
45 65 92 74 97 120 116 129 142 150 130 95 119 121 116 135 175 186 186 219 51 121 122 138 154 155 159 162 163 161 159 156 153 149 145 140 135 132 132 127 119 115 103 78
Height
1340 1341 1345 1354 1367 1387 1405 1409 1411 1415 1421 1438 1440 1433 1436 1442 1439 1442 1440 1441 1444 1447 1449 1453 1465 1471 1467 1480 1483 1486 1494 1493 1498 1503 1508 1511 1508 1509 1512 1507 1505 1500 1497 1487
1316 1315 1318 1324 1344 1364 1381 1390 1404 1410 1413 1414 1428 1426 1430 1433 1435 1441 1431 1433 1438 1441 1446 1459 1462 1467 1476 1479 1481 1484 1491 1491 1501 1505 1508 1510 1505 1505 1507 1512 1513 1503 1497 1475
1289 1282 1284 1294 1312 1334 1361 1377 1394 1403 1408 1404 1408 1416 1421 1425 1431 1436 1431 1434 1439 1446 1447 1451 1457 1470 1480 1482 1483 1485 1489 1494 1492 1482 1486 1491 1503 1501 1503 1512 1507 1489 1481 1477
1249 1241 1249 1260 1280 1306 1333 1349 1364 1367 1383 1394 1393 1404 1407 1414 1423 1432 1434 1435 1437 1434 1450 1451 1454 1465 1477 1483 1486 1487 1490 1492 1498 1494 1495 1496 1497 1498 1501 1510 1505 1506 1485 1486
1226 1226 1231 1247 1267 1292 1312 1321 1339 1360 1362 1384 1391 1398 1402 1405 1417 1424 1427 1430 1434 1434 1440 1439 1450 1456 1467 1471 1486 1485 1490 1489 1494 1495 1493 1495 1495 1496 1500 1502 1499 1492 1488 1485
1245 1233 1243 1260 1277 1292 1300 1313 1326 1340 1359 1375 1381 1381 1392 1401 1413 1424 1425 1428 1437 1438 1441 1438 1445 1455 1463 1467 1475 1480 1487 1489 1491 1484 1490 1495 1498 1491 1497 1500 1497 1500 1500 1502
1262 1256 1258 1266 1276 1285 1295 1310 1321 1332 1356 1362 1366 1382 1395 1401 1410 1418 1425 1431 1433 1445 1443 1446 1455 1463 1469 1472 1476 1479 1485 1487 1486 1484 1494 1496 1484 1483 1486 1491 1497 1497 1501 1504
1276 1272 1274 1275 1282 1291 1301 1312 1318 1331 1353 1364 1375 1382 1389 1402 1409 1420 1426 1428 1425 1437 1439 1447 1455 1466 1473 1477 1478 1481 1484 1483 1485 1485 1478 1480 1490 1490 1489 1486 1487 1497 1502 1503
1289 1288 1290 1294 1296 1302 1308 1315 1320 1331 1348 1368 1373 1380 1390 1397 1408 1423 1429 1431 1432 1432 1436 1442 1447 1456 1454 1469 1481 1485 1486 1485 1483 1484 1482 1477 1476 1488 1491 1490 1482 1495 1499 1499
1299 1298 1300 1304 1310 1314 1318 1322 1329 1334 1351 1369 1376 1380 1388 1396 1404 1415 1424 1427 1431 1432 1432 1441 1447 1453 1448 1459 1466 1480 1483 1484 1480 1479 1478 1476 1483 1489 1490 1483 1488 1495 1497 1497
1307 1307 1311 1313 1315 1321 1323 1329 1336 1340 1353 1371 1378 1381 1386 1392 1393 1401 1418 1425 1431 1432 1435 1439 1446 1448 1450 1451 1454 1465 1471 1474 1481 1478 1480 1477 1486 1489 1485 1487 1490 1493 1494 1495
1315 1316 1318 1321 1323 1328 1331 1339 1346 1351 1355 1376 1380 1383 1387 1392 1397 1403 1418 1416 1422 1428 1432 1440 1445 1449 1453 1451 1457 1466 1468 1464 1466 1471 1470 1481 1484 1485 1488 1488 1490 1492 1493 1493
1324 1326 1327 1328 1330 1333 1338 1344 1352 1354 1365 1378 1384 1392 1396 1397 1402 1405 1411 1421 1424 1429 1431 1438 1444 1447 1450 1451 1454 1460 1468 1471 1469 1474 1481 1480 1484 1486 1488 1489 1491 1492 1493 1493
1332 1334 1335 1335 1337 1339 1343 1347 1354 1360 1368 1383 1402 1400 1400 1404 1406 1408 1410 1414 1422 1427 1433 1437 1442 1447 1454 1454 1457 1457 1467 1470 1474 1472 1477 1481 1483 1485 1487 1489 1490 1491 1492 1492
1339 1340 1341 1343 1345 1347 1350 1355 1360 1364 1368 1387 1401 1401 1407 1408 1409 1410 1415 1419 1425 1429 1435 1440 1447 1451 1453 1459 1459 1462 1466 1470 1469 1469 1476 1478 1480 1483 1486 1488 1490 1491 1491 1490
1344 1346 1348 1350 1352 1353 1355 1361 1367 1368 1372 1384 1402 1416 1417 1415 1415 1417 1420 1423 1428 1434 1439 1446 1450 1453 1454 1454 1453 1463 1467 1470 1471 1475 1478 1479 1481 1484 1486 1488 1489 1489 1488 1487
1348 1350 1353 1355 1356 1357 1360 1370 1376 1377 1378 1391 1406 1417 1422 1422 1421 1426 1428 1430 1434 1440 1446 1449 1450 1454 1454 1456 1455 1464 1467 1470 1473 1475 1477 1481 1483 1484 1486 1487 1487 1487 1488 1488
1354 1356 1358 1359 1361 1364 1371 1375 1378 1380 1382 1392 1406 1422 1426 1427 1429 1432 1435 1438 1441 1446 1449 1452 1452 1457 1458 1456 1460 1465 1468 1471 1474 1476 1478 1479 1481 1483 1485 1486 1487 1488 1487 1487
1360 1362 1364 1367 1368 1373 1379 1381 1383 1384 1390 1399 1409 1412 1423 1430 1432 1435 1439 1442 1446 1451 1450 1452 1455 1454 1453 1456 1460 1465 1469 1471 1474 1477 1479 1481 1483 1484 1485 1486 1486 1487 1486 1486
1364 1366 1368 1374 1379 1380 1382 1386 1388 1391 1397 1404 1413 1416 1421 1429 1432 1440 1443 1446 1447 1448 1453 1454 1453 1451 1460 1463 1464 1467 1470 1473 1475 1477 1479 1481 1483 1485 1486 1486 1485 1485 1485 1485
1367 1369 1376 1381 1383 1384 1387 1393 1395 1400 1405 1411 1418 1419 1423 1431 1431 1438 1444 1445 1447 1443 1450 1452 1452 1450 1459 1464 1466 1469 1471 1473 1474 1476 1478 1480 1483 1484 1485 1485 1485 1484 1484 1484
1371 1374 1380 1383 1385 1388 1392 1401 1402 1401 1409 1417 1420 1424 1427 1432 1435 1438 1445 1446 1448 1444 1453 1453 1446 1453 1460 1464 1467 1469 1472 1473 1474 1476 1478 1480 1481 1483 1484 1484 1483 1483 1483 1483
1376 1379 1383 1387 1391 1390 1389 1398 1403 1406 1411 1417 1421 1426 1431 1435 1438 1443 1445 1446 1446 1450 1450 1444 1443 1455 1460 1464 1467 1470 1472 1473 1475 1476 1478 1479 1480 1481 1482 1482 1483 1484 1484 1484
1380 1384 1390 1392 1393 1396 1397 1397 1400 1409 1413 1417 1422 1428 1430 1437 1440 1444 1445 1450 1450 1447 1446 1440 1446 1454 1458 1463 1467 1469 1472 1473 1475 1477 1478 1479 1481 1481 1482 1483 1484 1484 1485 1485
1385 1388 1393 1398 1403 1404 1405 1405 1408 1412 1416 1419 1424 1428 1432 1437 1441 1442 1445 1447 1442 1439 1436 1439 1447 1452 1457 1462 1465 1468 1471 1473 1475 1477 1479 1480 1481 1482 1483 1484 1485 1485 1485 1485
1391 1395 1400 1405 1405 1408 1409 1410 1412 1416 1419 1423 1426 1430 1433 1437 1436 1439 1439 1437 1434 1434 1439 1444 1448 1453 1457 1461 1465 1468 1471 1474 1476 1478 1479 1481 1483 1484 1485 1486 1487 1487 1487 1487
1399 1402 1403 1405 1406 1408 1411 1414 1416 1419 1422 1424 1427 1430 1434 1437 1434 1435 1435 1435 1436 1441 1444 1447 1450 1453 1456 1461 1465 1468 1471 1473 1476 1478 1480 1482 1484 1485 1487 1487 1488 1488 1488 1488